Temp
-13 -13 -13 -13 -13 -13 -13 -14 -14 -15 -15 -15 -16 -16 -16 -16 -16 -16 -16 -16 -16 -16 -16 -16 -16 -16 -16 -16 -16 -16 -16 -16
-13 -14 -14 -14 -14 -15 -15 -15 -15 -15 -15 -16 -16 -16 -17 -17 -17 -16 -17 -17 -17 -17 -17 -17 -17 -17 -17 -17 -17 -17 -17 -17
-14 -14 -15 -15 -15 -16 -16 -16 -16 -16 -16 -16 -16 -17 -17 -17 -17 -17 -17 -17 -17 -18 -18 -18 -18 -18 -18 -18 -18 -18 -18 -18
-14 -15 -15 -16 -16 -16 -16 -16 -16 -17 -17 -17 -17 -17 -17 -18 -18 -18 -18 -18 -18 -18 -18 -18 -19 -19 -19 -19 -19 -19 -19 -19
-15 -15 -16 -16 -16 -16 -16 -17 -17 -17 -18 -18 -18 -18 -18 -18 -19 -19 -19 -19 -19 -19 -19 -19 -19 -19 -19 -19 -19 -20 -19 -19
-16 -16 -16 -17 -17 -17 -17 -17 -18 -18 -18 -18 -18 -19 -18 -18 -19 -19 -19 -19 -19 -19 -20 -19 -19 -20 -20 -20 -20 -20 -20 -20
-17 -17 -17 -17 -17 -17 -18 -18 -18 -19 -19 -19 -19 -19 -19 -19 -19 -19 -19 -20 -20 -20 -20 -20 -20 -20 -20 -20 -20 -20 -20 -20
-18 -18 -18 -18 -18 -18 -18 -18 -19 -19 -20 -20 -20 -20 -20 -20 -20 -20 -20 -20 -20 -21 -20 -20 -21 -21 -21 -21 -21 -20 -20 -20
-19 -19 -19 -19 -19 -19 -19 -19 -19 -19 -20 -20 -21 -20 -21 -21 -21 -20 -20 -20 -21 -21 -21 -21 -21 -21 -21 -21 -21 -20 -20 -20
-19 -19 -19 -19 -19 -19 -19 -19 -20 -20 -21 -21 -21 -21 -21 -21 -21 -21 -21 -21 -21 -21 -21 -21 -21 -21 -21 -21 -20 -20 -20 -20
-20 -20 -19 -19 -19 -20 -20 -21 -21 -21 -21 -22 -21 -21 -21 -21 -22 -22 -22 -22 -22 -22 -21 -21 -21 -21 -21 -21 -21 -21 -21 -21
-20 -20 -20 -20 -21 -21 -21 -22 -22 -22 -22 -22 -21 -22 -22 -22 -22 -22 -22 -22 -22 -22 -22 -21 -21 -21 -21 -21 -21 -21 -21 -22
-21 -20 -20 -21 -21 -21 -22 -22 -22 -22 -22 -22 -22 -22 -22 -22 -22 -22 -22 -22 -22 -22 -22 -21 -21 -21 -21 -21 -22 -22 -22 -22
-21 -20 -20 -21 -21 -22 -22 -22 -23 -23 -23 -22 -22 -22 -22 -22 -22 -23 -22 -22 -22 -22 -22 -21 -21 -21 -22 -22 -22 -22 -22 -23
-21 -21 -21 -22 -22 -22 -22 -23 -23 -23 -23 -23 -23 -22 -23 -23 -23 -23 -23 -22 -22 -22 -21 -21 -21 -22 -22 -22 -22 -23 -23 -23
-21 -22 -22 -22 -22 -22 -23 -23 -23 -23 -23 -23 -22 -22 -23 -23 -23 -23 -23 -23 -22 -21 -21 -21 -22 -22 -22 -22 -23 -23 -23 -23
-22 -21 -22 -22 -22 -22 -23 -23 -23 -23 -23 -23 -23 -23 -23 -23 -23 -23 -23 -23 -22 -21 -22 -22 -22 -23 -23 -23 -23 -23 -24 -24
-22 -22 -22 -22 -23 -23 -22 -23 -23 -23 -23 -23 -23 -23 -23 -24 -23 -23 -23 -22 -21 -22 -22 -22 -23 -23 -23 -23 -23 -24 -24 -24
-23 -23 -22 -22 -22 -23 -23 -23 -23 -23 -23 -23 -23 -23 -23 -23 -23 -23 -22 -22 -22 -22 -22 -23 -23 -23 -23 -23 -24 -24 -24 -24
Height
5735 5734 5733 5732 5731 5731 5730 5730 5729 5727 5726 5726 5726 5725 5724 5723 5721 5719 5717 5714 5711 5709 5706 5703 5700 5697 5695 5693 5691 5690 5688 5687
5726 5724 5723 5723 5723 5723 5722 5720 5719 5717 5716 5715 5714 5714 5713 5711 5710 5708 5705 5702 5699 5696 5694 5691 5688 5686 5684 5682 5680 5678 5676 5674
5715 5714 5714 5713 5712 5712 5711 5710 5708 5707 5706 5705 5704 5702 5700 5699 5697 5695 5692 5690 5688 5685 5682 5679 5677 5675 5673 5671 5669 5666 5664 5661
5703 5702 5702 5701 5701 5700 5699 5698 5697 5696 5695 5693 5692 5690 5688 5687 5685 5683 5680 5678 5675 5673 5671 5669 5668 5664 5662 5659 5656 5653 5650 5647
5691 5690 5690 5690 5690 5689 5687 5687 5686 5685 5683 5682 5680 5678 5676 5674 5673 5672 5668 5667 5664 5662 5660 5658 5657 5653 5650 5647 5644 5640 5637 5633
5679 5679 5679 5679 5679 5678 5677 5676 5674 5673 5673 5671 5669 5668 5666 5665 5662 5661 5658 5656 5653 5652 5651 5648 5646 5643 5640 5637 5634 5630 5626 5623
5670 5670 5669 5669 5668 5666 5665 5664 5663 5663 5663 5661 5659 5658 5656 5654 5652 5650 5648 5647 5645 5644 5642 5639 5637 5634 5631 5627 5624 5620 5616 5613
5659 5658 5658 5658 5657 5656 5655 5655 5654 5654 5652 5652 5650 5648 5646 5644 5643 5641 5640 5637 5635 5633 5632 5630 5627 5625 5621 5618 5614 5611 5607 5603
5648 5648 5647 5647 5647 5646 5646 5645 5645 5645 5643 5642 5640 5639 5637 5636 5634 5632 5630 5628 5626 5624 5623 5621 5618 5615 5612 5608 5605 5602 5599 5596
5639 5638 5639 5638 5637 5638 5636 5635 5635 5635 5634 5632 5631 5630 5629 5627 5625 5623 5621 5619 5618 5616 5614 5612 5609 5606 5603 5600 5598 5595 5592 5588
5631 5630 5629 5628 5627 5627 5626 5625 5626 5625 5624 5624 5623 5622 5620 5618 5616 5614 5613 5611 5610 5608 5605 5603 5601 5599 5597 5595 5592 5589 5585 5581
5621 5619 5618 5617 5616 5616 5616 5616 5616 5616 5616 5616 5615 5613 5612 5610 5608 5606 5604 5603 5602 5599 5597 5596 5594 5593 5591 5589 5586 5582 5579 5575
5609 5608 5608 5607 5608 5608 5607 5606 5606 5607 5607 5607 5606 5605 5604 5601 5599 5597 5596 5595 5593 5592 5590 5589 5588 5587 5586 5583 5580 5577 5574 5570
5599 5599 5599 5599 5598 5598 5597 5598 5598 5598 5598 5597 5597 5597 5595 5592 5591 5590 5588 5587 5586 5584 5583 5583 5583 5582 5580 5577 5574 5572 5569 5566
5589 5588 5589 5589 5589 5589 5589 5590 5589 5588 5588 5588 5588 5587 5586 5584 5583 5582 5581 5579 5578 5577 5577 5577 5577 5575 5573 5571 5569 5566 5564 5562
5575 5579 5578 5579 5578 5580 5579 5580 5579 5579 5579 5579 5578 5577 5577 5577 5576 5575 5574 5572 5572 5571 5572 5572 5571 5570 5568 5566 5563 5561 5558 5555
5567 5565 5569 5568 5568 5568 5569 5570 5570 5570 5570 5569 5568 5568 5570 5570 5569 5568 5567 5566 5566 5566 5566 5566 5565 5563 5561 5559 5557 5554 5551 5548
5557 5557 5556 5558 5558 5558 5559 5559 5560 5560 5560 5560 5560 5561 5562 5562 5561 5561 5560 5560 5560 5561 5560 5560 5558 5557 5555 5552 5550 5548 5544 5541
5547 5547 5547 5548 5548 5548 5549 5549 5550 5551 5552 5553 5554 5555 5554 5554 5554 5553 5553 5554 5554 5555 5554 5554 5552 5551 5548 5546 5543 5541 5537 5534
Wind_Speed
44 46 46 47 47 48 50 51 50 49 49 49 49 50 50 51 53 55 56 56 55 54 57 57 56 54 52 51 51 52 52 52
46 48 48 48 48 48 49 49 50 51 52 53 52 52 53 55 57 58 59 57 56 57 58 58 53 49 48 46 47 49 50 51
48 48 46 47 46 46 47 49 51 53 54 54 55 56 58 59 60 59 58 58 58 60 55 48 45 45 46 46 44 46 46 46
52 50 48 46 45 46 47 49 50 52 53 53 54 56 57 58 58 59 61 59 52 45 43 45 46 42 41 42 44 47 49 49
51 46 44 42 44 43 44 45 47 48 49 50 52 55 57 59 61 57 42 44 46 45 42 39 41 40 44 46 48 48 50 52
43 40 38 39 38 40 41 44 46 47 49 52 57 58 53 49 40 45 47 46 40 36 37 38 40 44 47 48 48 50 50 48
34 35 36 37 40 42 44 46 47 47 48 49 44 41 45 46 44 40 46 40 36 36 38 40 44 46 44 44 44 46 44 45
26 28 29 31 35 37 40 42 43 43 44 42 42 43 44 46 45 41 41 36 35 38 42 43 41 40 40 41 43 44 43 38
26 29 31 33 35 36 38 39 41 42 43 44 43 42 39 36 38 40 39 38 40 40 38 37 38 39 39 41 39 34 34 34
34 35 35 35 36 36 37 38 40 41 40 41 37 36 36 34 37 38 38 38 37 37 36 35 36 36 36 32 31 31 31 30
35 36 38 37 36 35 34 34 36 36 35 35 36 36 37 39 39 38 37 36 35 36 37 35 35 32 27 27 26 26 25 25
38 39 37 36 34 32 33 34 34 34 34 34 34 36 38 39 38 38 37 35 36 34 31 32 29 25 25 24 23 22 22 22
40 40 39 37 34 35 34 34 34 35 36 35 36 37 38 38 36 36 34 35 34 33 30 27 23 24 23 22 21 20 20 20
40 40 39 35 33 33 36 35 36 37 37 38 39 39 36 36 33 31 29 31 31 28 25 22 23 22 21 20 20 20 20 20
36 38 37 33 33 34 35 37 39 40 39 39 38 38 32 32 30 27 30 30 26 24 21 21 22 20 19 20 20 20 20 21
41 35 35 33 35 36 38 39 40 39 38 38 38 34 30 27 26 29 29 25 23 21 20 21 21 20 19 20 20 20 21 22
38 40 32 35 35 36 37 37 37 37 37 35 32 29 23 29 33 32 27 24 21 20 21 22 21 20 19 20 21 22 23 24
34 34 36 35 35 35 35 35 36 35 31 27 25 24 26 32 32 29 25 22 20 21 22 21 20 20 19 20 22 23 24 25
33 33 34 33 33 33 33 33 30 28 27 28 27 25 31 36 32 26 24 22 22 22 22 21 21 21 21 22 23 24 25 26
Wind_Direction
271 270 269 269 270 271 272 273 275 276 277 279 280 280 280 282 283 285 286 287 287 288 289 292 291 289 287 284 283 282 282 281
271 271 272 274 275 274 274 273 273 274 275 277 278 278 279 281 283 285 286 286 285 286 289 289 286 284 283 284 286 285 285 284
276 275 275 275 276 276 274 274 274 276 278 279 279 279 280 282 283 284 284 285 286 287 287 283 282 286 285 286 289 288 288 287
280 279 278 277 275 273 272 273 274 275 277 279 280 281 282 282 281 282 283 286 285 282 283 285 289 286 285 284 283 282 283 285
279 280 281 279 278 276 275 275 276 275 276 278 278 276 276 276 277 280 279 280 281 284 287 287 288 286 286 286 286 287 288 289
278 278 278 277 277 274 272 271 271 271 270 267 267 271 279 274 276 279 279 282 280 282 286 287 287 287 286 287 290 291 290 289
270 271 272 272 268 266 264 264 265 265 270 271 273 274 276 276 279 281 275 274 283 282 281 280 281 285 287 290 290 293 289 289
278 278 271 266 263 263 265 265 264 264 266 271 274 275 277 278 278 284 285 290 281 280 281 282 286 286 288 290 293 292 290 291
279 276 274 274 274 273 271 269 267 266 267 270 275 279 280 283 285 284 285 280 279 280 283 285 287 288 291 294 294 293 293 290
281 277 275 273 273 271 269 269 267 267 266 269 273 277 281 279 279 279 282 283 282 286 288 288 293 291 294 294 293 292 293 293
277 275 273 274 275 273 270 267 265 265 267 270 272 273 274 276 280 282 282 283 288 288 287 292 290 291 290 291 292 295 298 300
276 273 275 277 275 274 270 267 267 267 266 267 270 272 276 281 283 285 281 282 287 287 288 288 286 284 287 291 294 297 306 308
272 273 272 274 274 272 268 267 263 264 266 268 272 277 282 284 286 285 281 281 282 285 286 282 279 281 285 289 297 302 306 310
269 269 272 276 275 272 265 261 260 263 266 270 275 282 282 282 282 282 282 282 283 283 278 274 275 279 284 293 295 298 303 305
273 273 272 269 268 268 266 265 261 267 271 275 280 281 279 279 280 282 285 285 278 273 271 271 273 278 284 287 290 297 298 301
277 267 272 267 263 260 259 261 264 269 274 276 276 275 267 271 282 287 286 277 271 267 266 268 272 276 281 285 291 293 296 301
267 270 264 265 263 260 260 262 266 269 271 273 272 265 260 277 285 284 279 271 265 264 265 268 271 275 281 287 292 294 298 300
262 263 265 265 264 263 263 263 264 268 267 267 264 257 268 276 278 277 269 263 258 260 263 267 271 276 282 288 291 295 297 301
261 263 265 265 261 261 262 261 260 259 262 262 263 263 262 271 272 265 262 256 255 260 263 268 274 279 284 288 292 295 298 301